Flag for U.S.A. Weather past 2 weeks in Canton, Ohio, U.S.A.

Now
28 °F

Passing clouds.


Feels Like: 28 °F
Forecast: 26 / 35 °F
Wind: No wind

Location: Akron-Canton Regional Airport

Current Time: Dec 29, 2014 at 4:40:52 AM

Latest Report: Dec 29, 2014 at 3:51 AM


Visibility: 7 mi

Pressure: 30.22 "Hg

Humidity: 85%

Dew point: 24 °F

Location of CantonLocation

Historic Weather in Canton — Graph

°F

Canton temperature yesterday

Maximum temperature yesterday: 47 °F (at 12:51 AM)
Minimum temperature yesterday: 32 °F (at 11:51 PM)
Average temperature yesterday: 37 °F

Past Weeks' High & Low Weather Summary

 TemperatureHumidityPressure
High58 °F (Dec 24, 5:51 PM)93% (Dec 14, 12:51 PM)30.35 "Hg (Dec 14, 12:51 PM)
Low23 °F (Dec 22, 5:51 AM)39% (Dec 27, 12:51 PM)29.28 "Hg (Dec 24, 6:51 PM)
Average38 °F78%30.06 "Hg
* Reported Dec 14 2:51 AM — Dec 29 2:51 AM, Canton, Weather by CustomWeather, © 2014

Note: Actual official high and low records may vary slightly from our data, if they occured in-between our weather recording intervals... More about our weather records

Advertising

Canton weather history for previous 24 hours

 ConditionsComfort  
Time TempWeatherWind HumidityBarometerVisibility
2:51 AM
Dec 29
27 °FPassing clouds.3 mph85%30.23 "Hg7 mi
1:51 AM29 °FPassing clouds.3 mph85%30.21 "Hg8 mi
12:51 AM30 °FPassing clouds.6 mph82%30.20 "Hg9 mi
11:51 PM
Dec 28
32 °FPassing clouds.6 mph82%30.19 "Hg10 mi
10:51 PM34 °FOvercast.8 mph76%30.19 "Hg10 mi
9:51 PM33 °FOvercast.5 mph82%30.17 "Hg10 mi
8:51 PM35 °FMostly cloudy.5 mph78%30.17 "Hg10 mi
7:51 PM35 °FMostly cloudy.5 mph78%30.16 "Hg10 mi
6:51 PM34 °FMostly cloudy.5 mph82%30.15 "Hg10 mi
5:51 PM36 °FOvercast.5 mph75%30.13 "Hg10 mi
4:51 PM37 °FOvercast.3 mph73%30.11 "Hg10 mi
3:51 PM37 °FOvercast.6 mph76%30.10 "Hg10 mi
2:51 PM37 °FOvercast.8 mph73%30.08 "Hg10 mi
1:51 PM38 °FOvercast.7 mph73%30.06 "Hg10 mi
12:51 PM38 °FOvercast.8 mph76%30.07 "Hg10 mi
11:51 AM37 °FOvercast.8 mph79%30.09 "Hg10 mi
10:51 AM37 °FMore clouds than sun.6 mph76%30.09 "Hg10 mi
9:51 AM36 °FFog.8 mph82%30.08 "Hg6 mi
8:51 AM36 °FFog.7 mph85%30.07 "Hg4 mi
7:51 AM35 °FLight rain. Fog.8 mph88%30.06 "Hg3 mi
6:51 AM36 °FLight snow. Fog.12 mph89%30.05 "Hg2 mi
5:51 AM36 °FLight rain. Fog.14 mph89%30.02 "Hg2 mi
4:51 AM39 °FLight snow. Fog.14 mph89%29.98 "Hg4 mi
Weather by CustomWeather, © 2014

See weather overviewHow to use our weather pages